Weather History for Vicksburg, MS

Change the Weather History Date:

Friday, February 8, 2013

  Actual Average Record
Temperature  
Mean Temperature 50 °F 48 °F  
Max Temperature 59 °F 58 °F 81 °F (1957)
Min Temperature 41 °F 38 °F 21 °F (1954)
Degree Days  
Heating Degree Days 15 17  
Month to date heating degree days 102 141  
Since 1 July heating degree days 1489 1685  
Cooling Degree Days 0 0  
Month to date cooling degree days 0 0  
Year to date cooling degree days 18 3  
Moisture  
Dew Point 48 °F    
Average Humidity 81    
Maximum Humidity 100    
Minimum Humidity 61    
Precipitation  
Precipitation 0.00 in 0.19 in 1.38 in (1948)
Month to date precipitation 0.05 1.39  
Year to date precipitation 13.33 6.46  
Sea Level Pressure  
Sea Level Pressure 30.14 in    
Wind  
Wind Speed 9 mph (North)    
Max Wind Speed 22 mph    
Max Gust Speed 29 mph    
Visibility 9 miles    
Events      
T = Trace of Precipitation, MM = Missing Value Source: NWS Daily Summary

Daily Weather History Graph

Daily Weather History Graph

Search for Another Location

Airport:

Trip Planner

Search our weather history database for the weather conditions in past years. The results will help you decide how hot, cold, wet, or windy it might be!

Date:

Astronomy

Feb. 08, 2013 Rise Set
Actual Time 6:52 AM CST 5:44 PM CST
Civil Twilight 6:27 AM CST 6:09 PM CST
Nautical Twilight 5:58 AM CST 6:38 PM CST
Astronomical Twilight 5:29 AM CST 7:07 PM CST
Moon 5:18 AM CST (2/8) 4:19 PM CST (2/8)
Length of Visible Light 11h 42m
Length of Day
10h 51m
Waning Crescent, 3% of the Moon is Illuminated
Feb 8
Waning Crescent
Feb 10
New
Feb 17
First Quarter
Feb 25
Full
Mar 4
Last Quarter

Hourly Weather History & Observations

Time (CST) Temp. Windchill Dew Point Humidity Pressure Visibility Wind Dir Wind Speed Gust Speed Precip Events Conditions
12:53 AM 57.9 °F - 55.0 °F 90% 29.98 in 10.0 mi SW 3.5 mph - N/A   Mostly Cloudy
1:53 AM 57.0 °F - 55.0 °F 93% 29.99 in 10.0 mi Calm Calm - N/A   Overcast
2:53 AM 57.9 °F - 55.0 °F 90% 29.98 in 10.0 mi Calm Calm - N/A   Overcast
3:53 AM 57.9 °F - 55.0 °F 90% 29.99 in 10.0 mi Calm Calm - N/A   Overcast
4:53 AM 55.9 °F - 55.0 °F 97% 30.00 in 8.0 mi Calm Calm - N/A   Overcast
5:51 AM 53.6 °F - 53.6 °F 100% 30.00 in 3.0 mi Calm Calm - N/A   Mostly Cloudy
5:53 AM 54.0 °F - 54.0 °F 100% 30.02 in 3.0 mi Calm Calm - N/A   Mostly Cloudy
6:27 AM 57.2 °F - 55.4 °F 94% 30.01 in 7.0 mi Calm Calm - N/A   Overcast
6:53 AM 57.9 °F - 55.0 °F 90% 30.06 in 10.0 mi NW 13.8 mph 19.6 mph N/A   Overcast
7:53 AM 57.9 °F - 55.0 °F 90% 30.09 in 9.0 mi North 10.4 mph - N/A   Overcast
8:53 AM 55.9 °F - 51.1 °F 84% 30.13 in 10.0 mi North 13.8 mph 20.7 mph N/A   Overcast
9:13 AM 55.4 °F - 50.0 °F 82% 30.12 in 10.0 mi North 15.0 mph - N/A   Overcast
9:53 AM 55.9 °F - 48.9 °F 77% 30.17 in 10.0 mi North 17.3 mph 24.2 mph N/A   Overcast
10:53 AM 55.0 °F - 46.0 °F 72% 30.20 in 10.0 mi North 20.7 mph 26.5 mph N/A   Overcast
11:53 AM 55.9 °F - 46.0 °F 69% 30.20 in 10.0 mi North 16.1 mph 23.0 mph N/A   Overcast
12:53 PM 55.0 °F - 45.0 °F 69% 30.20 in 10.0 mi North 19.6 mph 26.5 mph N/A   Overcast
1:53 PM 55.0 °F - 44.1 °F 67% 30.20 in 10.0 mi NNE 13.8 mph - N/A   Overcast
2:53 PM 55.0 °F - 43.0 °F 64% 30.21 in 10.0 mi North 17.3 mph 21.9 mph N/A   Overcast
3:38 PM 55.4 °F - 42.8 °F 63% 30.18 in 10.0 mi NE 12.7 mph - N/A   Scattered Clouds
3:53 PM 55.9 °F - 42.1 °F 60% 30.20 in 10.0 mi NNE 11.5 mph - N/A   Clear
4:53 PM 55.0 °F - 42.1 °F 62% 30.20 in 10.0 mi NNE 10.4 mph - N/A   Clear
5:53 PM 52.0 °F - 42.1 °F 69% 30.22 in 10.0 mi NNE 6.9 mph - N/A   Clear
6:53 PM 48.9 °F - 42.1 °F 77% 30.24 in 10.0 mi North 5.8 mph - N/A   Clear
7:53 PM 46.9 °F - 41.0 °F 80% 30.25 in 10.0 mi North 9.2 mph - N/A   Clear
8:53 PM 46.0 °F 41.4 °F 39.9 °F 79% 30.26 in 8.0 mi North 9.2 mph - N/A   Clear
9:53 PM 45.0 °F 40.1 °F 39.9 °F 82% 30.26 in 7.0 mi NNE 9.2 mph - N/A   Clear
10:53 PM 43.0 °F 39.5 °F 39.0 °F 86% 30.26 in 6.0 mi North 5.8 mph - N/A   Clear
11:53 PM 42.1 °F 39.2 °F 37.9 °F 85% 30.27 in 7.0 mi NNE 4.6 mph - N/A   Clear